Location: ?ejkovice
(49.0137°N, 14.3821°E)
Time: 23:27:43
(UTC+00:00)

Cosmos 968 Rocket - Pass Details

Date: 07 August 2024
Orbit: 738 x 767 km, 74.0° (Epoch: 08 September)

Event Time Altitude Azimuth Distance (km) Brightness Sun altitude
Rises 22:04:28 0° 320° (NW) 3,225 7.9 -23.4°
Reaches altitude 10° 22:08:07 10° 294° (WNW) 2,286 6.5 -23.6°
Maximum altitude 22:10:26 13° 267° (W) 2,066 5.8 -23.7°
Enters shadow 22:12:30 11° 243° (WSW) 2,227 5.8 -23.7°
